Dewpoint
35 34 34 34 33 33 32 31 30 30 28 26 25 24 23 22 21 21 21 21 21 21 21 21 21 22 22 22 21 21 21 21 22 24 23 19 18 18 18 18 18 18 18 17 17 17 17 17 18 20 21 22 21 20 19 19 19 19 19 19 19 18 18 18 17 17 17 17 18
34 34 34 35 34 33 31 31 30 29 27 26 25 24 23 22 22 21 21 21 21 21 21 21 22 22 21 22 22 22 21 21 20 20 20 18 18 18 18 18 17 18 18 16 16 16 16 16 17 19 21 21 20 19 18 18 18 19 19 18 18 18 18 18 18 17 17 17 17
34 34 34 33 32 30 30 29 28 26 25 25 24 24 23 22 22 21 21 21 21 21 21 21 21 21 21 21 22 22 23 21 19 17 17 17 18 18 18 17 17 17 17 16 16 16 16 16 17 19 20 20 18 18 18 18 19 19 18 17 17 18 18 18 17 17 17 17 17
33 32 31 30 30 29 28 27 25 24 24 24 23 23 22 22 22 21 21 21 20 20 20 20 20 21 21 21 21 22 24 25 21 18 17 17 17 17 17 17 16 16 15 15 15 15 15 15 17 18 19 18 17 17 18 18 18 18 17 17 17 17 17 17 17 17 17 17 17
31 30 30 29 28 27 26 25 24 23 23 23 22 22 22 21 21 21 21 20 19 19 20 20 20 21 21 20 19 20 21 23 23 20 16 17 17 17 17 17 16 16 16 15 15 15 14 15 17 18 18 17 18 17 17 17 17 16 16 17 17 17 17 17 17 17 18 18 18
29 28 28 27 26 25 25 24 23 22 22 22 21 21 21 21 21 20 20 20 21 22 24 25 24 23 21 18 18 17 17 17 18 17 17 16 17 17 17 16 16 16 15 15 15 14 14 14 16 18 18 19 18 18 17 17 16 16 16 16 16 16 17 16 17 17 17 17 16
27 25 25 24 24 23 23 22 22 21 21 21 20 20 20 20 20 20 21 21 23 25 26 25 22 20 19 17 17 17 17 17 17 17 17 17 17 17 16 16 16 16 15 15 15 15 15 14 16 18 19 20 19 18 17 16 16 15 15 15 16 16 16 16 16 16 16 16 16
24 23 23 22 22 21 21 21 21 21 21 20 19 19 19 19 20 21 21 22 22 22 21 19 17 17 17 17 17 17 17 17 17 16 17 17 17 16 16 16 16 16 15 15 15 15 15 15 17 17 17 17 18 17 16 16 15 15 15 15 16 16 16 16 15 16 16 15 15
22 21 21 21 21 21 20 20 20 20 20 19 18 18 19 20 20 21 21 21 22 21 20 17 17 17 17 16 17 17 17 16 16 16 16 17 17 16 16 16 16 16 16 16 16 15 15 16 16 16 16 17 17 16 16 15 15 15 15 15 16 16 16 16 15 15 15 15 15
21 20 20 21 21 20 20 20 20 19 19 19 20 21 22 23 21 21 21 21 21 20 18 17 17 16 16 16 17 17 17 16 16 16 16 17 17 16 15 16 16 16 16 16 16 16 16 16 16 16 16 16 16 15 15 15 15 15 15 16 16 16 15 15 15 16 16 16 16
20 20 20 20 20 20 20 20 20 20 20 21 22 23 23 23 21 21 21 21 19 18 17 17 17 16 16 16 17 18 17 16 16 16 16 16 16 16 16 16 16 16 16 16 16 16 16 16 16 16 16 16 16 15 15 15 15 15 15 15 16 16 15 16 16 16 16 17 17
19 19 19 20 20 20 20 20 20 20 21 21 21 21 20 20 21 21 21 18 18 18 18 18 17 17 17 17 17 18 18 16 16 16 16 16 16 16 16 16 16 16 16 16 16 16 16 16 16 15 15 15 15 15 15 15 15 15 15 16 16 16 16 16 17 17 17 17 17
18 19 19 19 19 19 19 19 19 19 19 19 19 19 19 20 21 20 19 17 18 18 18 19 19 18 17 17 17 17 16 16 16 16 16 16 16 16 16 16 16 16 16 16 16 16 16 16 15 15 15 15 15 16 16 16 16 16 16 16 16 16 17 17 17 18 18 18 18
18 18 18 18 19 19 18 18 18 18 18 18 18 19 19 20 21 20 18 17 17 17 18 19 21 20 19 18 18 18 17 17 16 16 16 17 16 16 16 16 16 16 16 16 16 16 16 16 15 15 15 15 15 16 16 16 16 16 16 17 17 17 18 18 18 19 19 19 20
17 17 17 18 17 17 17 17 17 17 17 18 18 19 20 21 21 20 18 17 17 17 17 17 19 20 20 19 18 18 17 17 16 16 16 16 16 16 16 16 16 16 16 16 16 16 16 16 15 15 15 15 15 16 16 16 16 17 17 17 18 18 18 19 19 20 20 20 20
16 16 16 16 16 16 16 16 16 16 17 18 19 20 21 21 22 21 19 17 17 17 16 16 16 17 19 21 19 18 17 16 16 16 16 16 16 16 16 16 16 16 16 16 16 16 16 16 15 15 15 15 16 16 16 17 17 18 18 18 19 19 19 20 21 21 21 21 21
15 15 15 15 15 15 15 15 16 16 17 18 19 20 21 22 23 23 21 18 17 16 16 16 16 17 17 19 19 19 18 16 16 16 16 16 16 16 16 16 17 16 16 16 16 16 16 16 15 16 16 16 16 17 17 18 19 19 19 20 20 20 21 21 22 22 22 21 22
14 14 14 14 14 15 15 16 16 17 18 18 19 19 20 21 21 21 21 20 17 16 16 16 16 16 16 16 17 19 19 17 17 17 17 16 16 16 16 16 17 16 16 16 16 16 16 16 16 16 16 16 17 18 19 20 20 20 21 21 21 21 21 22 22 22 22 21 22
14 14 14 15 15 16 16 17 17 18 18 18 18 18 17 17 18 18 19 20 19 17 16 16 16 16 16 16 16 18 20 18 17 17 17 17 17 17 17 17 16 16 16 16 16 16 16 15 16 16 17 18 19 20 21 21 21 21 22 22 22 22 22 22 22 22 22 22 22
14 15 15 16 16 17 18 18 18 17 17 17 17 16 16 16 17 17 18 18 19 18 16 16 16 16 16 16 16 17 18 19 17 17 17 17 17 17 17 17 16 16 16 16 16 15 16 16 16 17 19 20 21 21 22 22 22 23 23 23 23 22 22 22 22 22 22 22 21
15 16 16 16 17 17 17 17 17 17 17 16 16 16 16 16 17 17 18 19 18 17 16 16 16 16 16 16 17 17 18 19 18 17 17 17 17 17 17 17 17 16 16 16 16 16 16 17 18 19 21 22 23 23 23 24 24 23 23 23 23 23 22 22 22 22 22 22 21
16 16 17 17 17 17 17 17 17 17 17 16 16 16 16 16 17 17 18 18 18 17 16 16 16 17 17 17 18 18 18 19 18 17 17 17 17 17 17 17 16 16 16 16 16 16 17 19 21 21 23 24 24 24 24 25 24 24 23 23 22 22 22 22 22 22 21 21 21
16 17 17 18 18 19 19 17 17 17 17 16 16 16 16 16 16 16 17 17 18 17 16 16 17 17 17 18 18 18 18 18 17 17 17 17 16 16 16 16 16 16 16 15 16 19 21 22 23 24 25 25 25 25 25 25 25 24 23 23 22 22 22 22 22 21 21 21 21
17 18 18 18 18 18 18 17 17 17 16 16 16 16 16 16 16 16 16 16 16 16 16 16 18 18 19 19 19 18 18 17 17 17 17 16 16 16 16 16 16 16 16 16 20 23 25 25 26 26 26 26 25 25 24 24 24 24 23 22 22 22 22 22 21 21 21 20 20
18 19 19 18 18 17 17 17 17 16 16 16 16 16 16 16 16 16 16 16 16 16 17 17 19 20 21 19 19 18 18 17 17 17 16 16 16 16 16 17 17 16 16 20 25 28 29 29 28 27 27 26 25 25 25 25 24 24 23 22 22 22 21 21 21 21 21 20 20
18 18 18 17 17 17 17 17 16 16 16 16 16 16 16 16 16 16 16 17 17 17 18 19 21 22 22 19 18 18 18 17 17 17 16 16 16 16 17 17 17 16 17 23 27 29 30 30 30 29 28 26 25 25 25 25 24 23 23 22 21 21 21 21 21 21 21 21 20
18 17 17 17 17 17 17 16 16 16 16 16 16 16 16 16 16 17 17 17 18 18 19 20 21 22 22 18 18 17 17 17 17 17 16 16 17 17 17 17 17 17 19 25 28 29 30 30 30 30 29 27 26 25 25 24 23 22 22 21 21 21 21 20 21 21 21 20 19
17 17 17 17 17 16 16 16 16 16 15 16 16 16 16 16 17 17 17 18 18 19 20 20 21 21 19 18 18 18 17 17 17 17 16 16 17 17 18 18 17 19 22 27 28 29 30 30 30 30 30 28 26 25 25 23 23 22 21 21 21 21 21 21 20 20 20 20 19
17 17 17 16 16 16 16 15 15 15 15 15 16 16 16 17 17 17 18 18 19 20 20 20 20 19 18 18 18 18 17 17 17 17 17 17 17 18 18 19 18 20 24 28 28 29 30 30 30 30 30 30 28 26 24 23 22 21 21 21 21 21 21 21 20 20 20 19 19
17 16 16 16 16 15 15 15 15 15 15 15 16 16 16 17 17 17 18 19 20 21 21 20 19 18 18 18 18 18 17 17 17 17 17 17 19 19 19 20 18 20 23 28 28 29 29 30 29 29 30 30 28 26 24 22 21 21 21 21 21 21 21 20 20 19 19 20 19
16 16 16 16 15 15 15 15 15 15 15 15 16 16 16 16 17 18 18 19 20 21 22 20 19 18 18 18 18 17 17 17 17 17 18 18 20 20 19 18 17 19 23 28 28 29 29 29 29 29 29 30 29 26 24 22 21 21 21 21 21 21 21 20 20 20 20 19 19
16 16 16 15 15 15 15 15 15 15 15 15 16 16 16 16 17 18 19 20 21 21 20 19 18 18 18 18 17 17 17 17 18 19 19 20 19 17 17 19 17 20 24 27 28 29 29 29 29 29 29 30 29 27 24 22 21 21 21 21 21 21 21 20 20 20 19 19 19
16 15 15 15 15 15 15 15 15 15 15 15 16 16 16 16 17 18 19 21 21 20 19 18 18 18 17 17 17 17 17 18 19 20 20 20 18 18 18 19 16 20 25 27 28 28 29 29 29 29 29 30 29 26 24 22 21 21 21 21 21 21 21 20 20 20 19 19 18
15 15 15 15 15 15 15 15 15 15 15 16 16 16 16 16 17 17 19 21 21 20 19 19 18 18 17 17 17 17 17 20 19 18 17 17 17 18 18 17 15 19 25 28 28 28 28 28 28 29 29 30 27 25 23 21 21 21 21 21 21 21 21 20 20 19 19 18 18
15 15 15 15 15 15 15 15 15 15 15 15 16 16 16 16 16 17 19 22 22 21 19 18 18 17 17 17 17 17 18 19 17 17 17 18 18 18 18 16 16 20 25 28 28 28 28 28 28 28 29 29 26 24 23 21 21 21 21 21 21 21 20 20 19 19 18 18 19
15 15 15 14 14 14 15 15 15 15 15 15 16 16 16 17 17 17 20 23 21 20 18 17 17 17 17 17 16 17 18 18 17 18 18 20 19 17 16 16 16 21 25 27 28 28 28 28 28 28 28 27 25 23 22 22 21 21 21 21 21 20 20 19 19 19 19 20 21
15 15 14 14 14 14 15 15 15 15 15 16 16 16 16 16 16 17 19 21 19 18 18 17 17 17 16 16 17 18 18 18 18 18 19 20 18 17 16 17 17 20 23 26 27 27 27 27 28 28 27 25 24 23 22 22 21 21 21 21 20 20 19 19 19 20 22 23 25
15 15 14 14 15 15 15 15 15 15 16 16 16 16 16 16 16 17 19 21 19 18 17 17 17 16 17 17 19 19 19 19 19 18 18 17 16 16 17 18 18 19 22 25 27 27 27 27 28 28 27 25 24 22 22 21 21 21 21 20 20 19 20 21 22 24 26 26 27
15 15 15 15 15 15 15 15 15 16 16 16 16 16 16 16 17 18 20 21 18 17 17 17 17 17 17 20 21 20 19 17 17 17 17 16 16 19 21 20 19 19 21 24 26 27 27 27 28 28 28 26 24 23 22 21 21 21 20 20 19 20 21 24 26 26 26 25 25
15 15 15 15 15 15 15 16 16 16 16 16 16 16 16 17 19 20 20 19 17 17 17 17 17 17 19 22 21 18 16 16 16 16 16 17 18 21 22 20 17 17 19 23 25 27 28 28 28 28 27 25 24 22 22 21 21 20 20 20 20 22 25 27 26 25 22 20 21
15 15 15 15 15 16 16 16 16 16 16 16 16 17 18 20 19 19 18 16 16 17 17 17 17 17 18 20 18 17 16 16 16 16 16 18 18 19 20 18 16 15 16 20 25 27 28 28 28 28 27 25 24 22 22 21 21 20 20 20 23 25 27 26 23 21 18 17 17